Hourly Data Report for September 10, 2017

All times are specified in Local Standard Time (LST). Add 1 hour to adjust for Daylight Saving Time where and when it is observed.

PORT ALBERNI (AUT)
BRITISH COLUMBIA

49°18'59.700" N
124°55'36.600" W
76.20 m
1036B06
71475
WQC

Download Data

Hourly Data (September 2017)
Hourly Data Report for September 10, 2017
Temp Definition
°C
Dew Point Temp Definition
°C
Rel Hum Definition
%
Wind Dir Definition
10's deg

Wind Spd Definition
km/h
Visibility Definition
km
Stn Press Definition
kPa
Hmdx Definition


Wind Chill Definition


Weather Definition


TIME
00:00 12.1 11.2 94 13 7   101.35     LegendNANA
01:00 11.0 10.5 96 28 3   101.38     LegendNANA
02:00 11.0 10.4 96 30 4   101.42     LegendNANA
03:00 11.5 10.9 96 32 3   101.50     LegendNANA
04:00 11.2 10.5 96 28 7   101.52     LegendNANA
05:00 11.1 10.5 96 3 15   101.55     LegendNANA
06:00 11.3 10.8 97 31 3   101.61     LegendNANA
07:00 12.0 11.3 96 4 5   101.62     LegendNANA
08:00 14.2 11.4 83 9 4   101.62     LegendNANA
09:00 15.6 11.2 75 6 4   101.68     LegendNANA
10:00 17.2 10.3 64 36 4   101.66     LegendNANA
11:00 18.2 9.9 58 1 5   101.63     LegendNANA
12:00 18.9 9.2 53 1 4   101.60     LegendNANA
13:00 18.3 9.9 58 1 9   101.65     LegendNANA
14:00 18.3 10.3 60 1 7   101.65     LegendNANA
15:00 17.6 9.8 60 1 7   101.62     LegendNANA
16:00 18.1 10.2 60 1 3   101.60     LegendNANA
17:00 17.9 9.8 59 1 4   101.59     LegendNANA
18:00 17.2 10.5 65 1 3   101.59     LegendNANA
19:00 16.4 11.2 72 36 3   101.58     LegendNANA
20:00 15.4 11.6 78 1 10   101.59     LegendNANA
21:00 14.8 12.0 83 1 6   101.55     LegendNANA
22:00 15.0 12.1 83 36 5   101.52     LegendNANA
23:00 14.6 12.0 84 1 13   101.51     LegendNANA

Notes on Data Quality.

Legend

  • E = Estimated
  • M = Missing
  • NA = Not Available
  • ‡ = Partner data that is not subject to review by the National Climate Archives
Date modified: